[[{"header":{"parameterUnit":"m.s-1","parameterCategory":1,"la1":30.2992,"la2":30.254,"lo1":-89.0895,"lo2":-89.0443,"dy":0.0025,"dx":0.0025,"nx":19,"ny":19,"refTime":"2026-04-25T03:00:00:Z","depth":0,"parameterNumber":2,"parameterNumberName":"U-component_of_WINDS"},"data":[0,0,0,4.4501,4.4504,4.4662,4.4662,4.4861,4.4863,0,0,0,0,0,0,0,0,0,0,0,4.4452,4.4453,4.4501,4.4505,4.4662,4.4662,4.4861,4.4863,0,0,0,0,0,0,0,0,0,0,0,4.4452,4.4453,4.4455,4.4505,4.4661,4.4662,4.4861,4.4743,0,0,0,0,0,0,0,0,0,0,4.4591,4.4543,4.4453,4.4455,4.4506,4.4661,4.4662,4.4737,4.475,4.4789,0,4.4822,0,4.4846,4.4876,4.4877,0,0,0,4.4507,4.4532,4.4577,4.4455,4.4508,4.4661,4.4591,4.4745,4.4759,4.4806,4.4825,4.4832,4.4849,4.4878,4.4879,4.5095,4.5096,0,0,4.4498,4.4479,4.4567,4.4586,4.4561,4.4586,4.4596,4.4754,4.4773,4.4826,4.4837,4.4852,4.4879,4.488,4.5094,4.5095,0,0,0,4.4472,4.4473,4.4514,4.4578,4.4606,4.4591,4.4602,4.4766,4.4781,4.4839,4.4855,4.488,4.4882,4.5093,4.5095,4.5122,0,0,0,4.4467,4.4458,4.451,4.45,4.4603,4.4688,4.4611,4.477,4.4788,4.4854,4.488,4.4884,4.5092,4.5094,4.5119,4.5137,0,0,0,4.4443,4.4455,4.4477,4.4499,4.4566,4.4686,4.471,4.4774,4.4798,4.4877,4.4885,4.5092,4.5094,4.5116,4.5133,4.5189,0,0,0,4.4412,4.4498,4.4477,4.458,4.4564,4.4701,4.4709,4.4812,4.4883,4.4881,4.5092,4.5095,4.5115,4.513,4.5186,4.5232,4.525,0,0,4.451,4.4509,4.4571,4.4557,4.4693,4.4679,4.482,4.4903,4.4928,4.5038,4.5044,4.512,4.5133,4.5188,4.5356,4.5369,0,0,0,4.4596,4.464,4.4681,4.4748,4.4814,4.4873,4.4937,4.4969,4.5063,4.498,4.5156,4.5165,4.5198,4.5221,4.5232,4.5263,4.5104,4.5104,4.5104,4.4706,4.4735,4.484,4.4888,4.4954,4.5021,4.5077,4.5131,4.5139,4.5181,4.5213,4.5311,4.5337,4.5346,4.5377,4.524,4.5241,4.5241,4.5241,4.4853,4.492,4.4932,4.5038,4.5068,4.5158,4.5227,4.5231,4.532,4.5288,4.5319,4.5281,4.536,4.5389,4.5243,4.5243,4.5242,4.5242,4.5242,4.4927,4.4964,4.5002,4.5105,4.5181,4.5228,4.5313,4.5338,4.5362,4.5393,4.543,4.543,4.5432,4.5409,4.5409,4.541,4.541,4.541,4.5411,4.4988,4.503,4.5099,4.5179,4.5227,4.5294,4.5365,4.5413,4.5473,4.5484,4.5485,4.549,4.5363,4.533,4.5416,4.5415,4.5414,4.5414,4.5413,4.5123,4.5098,4.5203,4.5252,4.535,4.5425,4.5457,4.5554,4.5598,4.564,4.564,4.5542,4.5543,4.5534,4.5507,4.5633,4.5633,4.5633,4.5633,4.5185,4.5189,4.5304,4.538,4.5458,4.5499,4.562,4.5677,4.5732,4.5762,4.5748,4.5714,4.5704,4.5711,4.5698,4.5673,4.5839,4.5839,4.5839,4.527,4.5283,4.5379,4.5434,4.5513,4.5581,4.5696,4.5785,4.5842,4.5848,4.5785,4.5777,4.5723,4.5705,4.5706,4.5686,4.564,0,0]},{"header":{"parameterUnit":"m.s-1","parameterCategory":1,"la1":30.2992,"la2":30.254,"lo1":-89.0895,"lo2":-89.0443,"dy":0.0025,"dx":0.0025,"nx":19,"ny":19,"refTime":"2026-04-25T03:00:00:Z","depth":0,"parameterNumber":3,"parameterNumberName":"V-component_of_WINDS"},"data":[0,0,0,4.6964,4.6964,4.6959,4.6959,4.6947,4.6947,0,0,0,0,0,0,0,0,0,0,0,4.6963,4.6963,4.6964,4.6964,4.6959,4.6959,4.6947,4.6946,0,0,0,0,0,0,0,0,0,0,0,4.6963,4.6963,4.6963,4.6964,4.6959,4.6959,4.6947,4.6952,0,0,0,0,0,0,0,0,0,0,4.6958,4.6956,4.6963,4.6963,4.6964,4.6959,4.6959,4.6952,4.6952,4.6947,0,4.6944,0,4.6945,4.6946,4.6945,0,0,0,4.6964,4.6956,4.6957,4.6963,4.6963,4.6959,4.6961,4.6952,4.6951,4.6946,4.6944,4.6943,4.6945,4.6945,4.6945,4.6921,4.6921,0,0,4.6965,4.6961,4.6958,4.6957,4.6959,4.6961,4.6961,4.6952,4.6948,4.6944,4.6943,4.6945,4.6945,4.6945,4.6921,4.6921,0,0,0,4.6965,4.6961,4.6962,4.6957,4.6957,4.6961,4.6961,4.6948,4.6949,4.6943,4.6945,4.6945,4.6945,4.6921,4.6921,4.6911,0,0,0,4.6965,4.6961,4.6962,4.696,4.6957,4.6953,4.6958,4.695,4.6949,4.6945,4.6945,4.6945,4.6922,4.6921,4.6911,4.6906,0,0,0,4.6964,4.6961,4.696,4.6959,4.6957,4.6953,4.6953,4.695,4.695,4.6945,4.6945,4.6922,4.6921,4.6912,4.6907,4.6899,0,0,0,4.6961,4.6949,4.696,4.6947,4.6958,4.6948,4.6953,4.6945,4.6941,4.6945,4.6922,4.6921,4.6912,4.6907,4.6899,4.6891,4.6887,0,0,4.6944,4.6947,4.6939,4.6949,4.6936,4.6949,4.6934,4.6932,4.6934,4.6925,4.6924,4.6911,4.6907,4.6899,4.6869,4.6866,0,0,0,4.6932,4.6927,4.6925,4.6921,4.6921,4.692,4.6922,4.6921,4.6914,4.6929,4.6907,4.6904,4.6899,4.6895,4.6893,4.6889,4.6919,4.6919,4.692,4.69,4.6906,4.6894,4.69,4.6896,4.6899,4.6896,4.6896,4.69,4.6895,4.6892,4.6874,4.6869,4.6867,4.6863,4.6889,4.6889,4.6889,4.6889,4.6873,4.6867,4.6877,4.6869,4.6875,4.6868,4.687,4.6875,4.6868,4.6876,4.6872,4.688,4.6864,4.6861,4.6888,4.6888,4.6888,4.6888,4.6888,4.6852,4.685,4.6852,4.6849,4.6845,4.6851,4.6846,4.6851,4.6855,4.6852,4.6849,4.6849,4.6849,4.6851,4.685,4.685,4.685,4.685,4.685,4.6828,4.6831,4.6826,4.6827,4.6827,4.6827,4.6831,4.683,4.683,4.6834,4.6834,4.6839,4.6862,4.6868,4.6849,4.6849,4.685,4.685,4.685,4.6797,4.6806,4.6799,4.6799,4.6801,4.6798,4.6806,4.6804,4.6804,4.6801,4.6808,4.6825,4.6828,4.683,4.6834,4.6808,4.6808,4.6808,4.6808,4.6778,4.6782,4.6777,4.6776,4.6776,4.6784,4.6775,4.6779,4.6784,4.6784,4.6789,4.6796,4.6797,4.6799,4.6801,4.6805,4.6773,4.6773,4.6773,4.676,4.6764,4.6755,4.6763,4.6766,4.6768,4.676,4.6758,4.6765,4.6771,4.6784,4.6786,4.6796,4.68,4.6804,4.6808,4.6815,0,0]}]]